Location: Stanford
(52.2833°N, 2.4333°W)
Time: 01:34:56
(UTC+00:00)

Cosmos 2195 Rocket - Pass Details

Date: 22 January 2021
Orbit: 948 x 994 km, 82.9° (Epoch: 28 February)

Event Time Altitude Azimuth Distance (km) Brightness Sun altitude
Rises 19:01:08 0° 184° (S) 3,693 7.6 -21.3°
Reaches altitude 10° 19:03:38 10° 183° (S) 2,751 6.9 -21.7°
Maximum altitude 19:09:58 81° 97° (E) 1,014 4.4 -22.6°
Drops below altitude 10° 19:16:20 10° 12° (NNE) 2,769 6.7 -23.6°
Sets 19:18:52 0° 12° (NNE) 3,719 7.4 -24.0°
